www.pogodaiklimat.ru

Погода и климат >> Архив погоды >> Россия >> Крым >> Симферополь


АРХИВ ПОГОДЫ в Симферополе

Время (UTC), дата Ветер
(напр.,м/с)
 
Видим.   Явления Облачность Т
(С)
Тd
(С)
f
(%)
Тe
(С)
Тes
(С)
Комфортность P
(гПа)
Po
(гПа)
Тmin
(С)
Tmax
(С)
R
(мм)
R24
(мм)
S
(см)
15 13.08 З 6
{10}
10 км 3/0
[Ac cuf]
+29.5 +13.3 37 +31 +32 жарко 1013.8 993.4
18 13.08 Ю 4 10 км 3/0
[Ci fib]
+23.8 +17.5 68 +28 +28 душно 1014.7 994.0 +32.7
21 13.08 Ю 3 10 км ясно +20.2 +17.4 84 +24 +24 комфорт 1015.4 994.4
00 14.08 В 3 10 км ясно +19.5 +14.7 74 +21 +21 комфорт 1015.4 994.3
03 14.08 В 4 10 км ясно +18.2 +13.1 72 +18 +18 прохладно 1015.6 994.4 +17.8
06 14.08 СВ 3 10 км ясно +26.1 +13.3 45 +28 +34 жарко 1015.1 994.5 +17.8
09 14.08 СВ 4 10 км 1/1 1500 м
[Cu hum]
+32.0 +8.9 24 +31 +40 жарко 1014.3 994.1
12 14.08 СВ 3
{10}
10 км 3/3 1500 м
[Cu hum]
+33.3 +7.3 20 +32 +38 жарко 1013.1 993.0
15 14.08 СВ 7-10
{11}
10 км 1/0
[Ac trans]
+32.2 +9.1 24 +31 +32 жарко 1012.7 992.5
18 14.08 ЮВ 2
{10}
10 км ясно +24.6 +13.2 49 +27 +27 жарко 1014.2 993.5 +34.1
21 14.08 В 2 10 км ясно +22.0 +13.1 57 +25 +25 комфорт 1014.4 993.5
00 15.08 В 4 10 км ясно +21.3 +11.1 52 +23 +23 комфорт 1014.4 993.4
03 15.08 СВ 5 10 км ясно +18.3 +10.4 60 +18 +18 по сезону 1014.3 993.1 +17.9
06 15.08 СВ 7 10 км ясно +26.6 +18.5 61 +31 +33 душно 1013.4 992.9 +17.9
09 15.08 В 8-13
{13}
10 км 1/1 1500 м
[Cu hum]
+33.2 +12.3 28 +33 +36 жарко 1012.3 992.2
12 15.08 В 8-14
{14}
10 км 1/1 1500 м
[Cu hum]
+34.2 +11.4 25 +34 +36 очень
жарко
1011.2 991.2
15 15.08 В 9-12
{14}
10 км ясно +32.2 +10.9 27 +32 +32 жарко 1011.5 991.3
18 15.08 В 5
{13}
10 км ясно +26.5 +11.4 39 +28 +28 жарко 1012.7 992.1 +34.8
21 15.08 В 3 10 км ясно +22.1 +11.2 50 +24 +24 комфорт 1013.0 992.1
00 16.08 СВ 4 10 км ясно +20.0 +11.0 56 +22 +22 комфорт 1012.5 991.5
03 16.08 В 5 10 км 3/0
[Ci fib]
+19.7 +12.0 61 +21 +21 комфорт 1011.9 990.9 +18.9
06 16.08 СВ 4 10 км 8/0
[Ci fib]
+27.7 +16.3 50 +31 +35 душно 1011.4 991.0 +18.9
09 16.08 В 9-12
{14}
10 км 8/1 1500 м
[Cu hum Ci fib]
+33.7 +10.4 24 +33 +34 жарко 1010.9 990.8
12 16.08 СВ 11-15
{20}
10 км 8/0
[Ac cuf Ci fib]
+34.3 +10.9 24 +34 +34 очень
жарко
1010.4 990.4
15 16.08 В 9-13
{17}
10 км 6/0
[Ci fib]
+32.0 +10.7 27 +32 +32 жарко 1011.0 990.8
18 16.08 В 3
{13}
10 км ясно +25.0 +11.6 43 +26 +26 жарко 1011.6 991.0 +35.3
21 16.08 СВ 4 10 км ясно +21.5 +12.6 57 +24 +24 комфорт 1011.9 991.0
00 17.08 В 4 10 км ясно +20.8 +14.2 66 +24 +24 комфорт 1011.6 990.7
03 17.08 В 4 10 км 3/0
[Ci fib]
+19.6 +15.3 76 +22 +22 комфорт 1011.5 990.5 +19.6
06 17.08 СВ 4 10 км 3/0
[Ci fib]
+26.9 +17.1 55 +31 +35 душно 1011.1 990.6 +19.5
09 17.08 СВ 7-12
{12}
10 км 1/1 1500 м
[Cu hum]
+32.6 +15.2 35 +35 +38 душно 1010.4 990.3
12 17.08 СВ 9-12
{13}
10 км 3/0
[Ci fib]
+33.0 +11.5 27 +33 +34 жарко 1010.1 990.0
15 17.08 СВ 9-12
{14}
10 км 1/0
[Ci fib]
+30.1 +14.6 39 +32 +32 жарко 1009.7 989.5
18 17.08 В 5
{13}
10 км 1/0
[Ci fib]
+26.2 +15.3 51 +29 +29 жарко 1010.8 990.3 +33.7
21 17.08 В 4 10 км ясно +23.9 +13.2 51 +26 +26 жарко 1011.0 990.3
00 18.08 В 4 10 км ясно +19.7 +14.3 71 +22 +22 комфорт 1011.5 990.5
03 18.08 В 4 10 км 1/0
[Ci fib]
+18.7 +14.2 75 +19 +19 по сезону 1012.2 991.1 +18.5
06 18.08 СВ 5 10 км 1/0
[Ci fib]
+27.6 +17.2 53 +32 +35 очень
душно
1012.1 991.7 +18.5
09 18.08 СВ 8-13
{14}
10 км 1/1 1500 м
[Cu hum]
+33.3 +11.2 26 +33 +35 жарко 1012.0 991.9
12 18.08 СВ 9-13
{16}
10 км 5/5 1000 м
[Cb calv]
+33.4 +11.3 26 +33 +34 жарко 1012.2 992.1
15 18.08 СВ 7-10
{13}
10 км 1/1 1000 м
[Cb cap]
+30.8 +11.2 30 +31 +31 жарко 1012.6 992.3
18 18.08 СВ 4
{10}
10 км 1/0
[Ac trans]
+25.1 +12.7 46 +27 +27 жарко 1014.3 993.6 +34.8
21 18.08 В 3 10 км ясно +21.1 +14.5 66 +24 +24 комфорт 1015.1 994.1
00 19.08 В 4 10 км ясно +20.2 +16.4 79 +23 +23 комфорт 1015.1 994.1
03 19.08 В 4 10 км ясно +18.2 +16.7 91 +18 +18 по сезону 1015.2 994.1 +18.1
06 19.08 СВ 6
{10}
10 км ясно +24.5 +17.7 66 +29 +31 душно 1015.4 994.7 +18.1
09 19.08 СВ 8-12
{13}
10 км 3/3 1500 м
[Cu hum]
+29.3 +12.7 36 +30 +32 жарко 1014.7 994.3
12 19.08 СВ 9-13
{14}
10 км 1/1 1500 м
[Cu hum]
+29.4 +12.4 35 +30 +31 жарко 1014.4 994.0
15 19.08 СВ 9-12
{13}
10 км ясно +26.7 +11.6 39 +28 +28 жарко 1014.6 994.0
18 19.08 СВ 4
{12}
10 км ясно +20.6 +11.0 54 +23 +23 комфорт 1015.9 994.9 +30.4
21 19.08 СВ 3 10 км ясно +17.1 +12.0 72 +17 +17 по сезону 1016.2 994.9
00 20.08 СВ 3 10 км ясно +15.3 +11.9 80 +15 +15 по сезону 1015.7 994.3
03 20.08 В 3 10 км ясно +13.8 +11.5 86 +13 +13 холодно 1015.4 993.9 +13.6
06 20.08 СВ 6 10 км ясно +21.9 +12.7 56 +24 +27 комфорт 1015.0 994.1 +13.6
09 20.08 СВ 11-15
{16}
10 км ясно +28.2 +5.7 24 +27 +27 жарко 1013.9 993.4

 

Местоположение метеостанции Симферополь (Крым, Россия): широта 45.03 долгота 33.97 высота над уровнем моря 181 м.

В архиве по умолчанию представлена погода в Симферополе за последнюю неделю. Архивные данные за месяц целиком и за предыдущие месяцы, начиная с января 2011 года, Вы можете получить, выбрав интересующий диапазон дат из раскрывающегося списка и нажав кнопку "Ввод!".


*Определитесь, кто Вы:
робот инопланетянин человек

Внимание! Время в таблицах - всемирное. Для получения местного времени необходимо прибавить поправку, которая в Симферополе равна 3 ч.

Смотрите также архив погоды в соседних городах и на ближайших метеорологических станциях:

Погода в Симферополе город (Крым, Россия) (15 км)
Погода в Почтовом (Крым, Россия) (22 км)
Погода в Ангарском Перевале (Крым, Россия) (43 км)
Погода в Белогорске (Крым, Россия) (50 км)
Погода в Евпатории (Крым, Россия) (50 км)
Погода в Алуште (Крым, Россия) (52 км)
Погода в Севастополе (город Севастополь, Россия) (57 км)
Погода в Клепинино (Крым, Россия) (58 км)
Погода в Никитском саду (Крым, Россия) (61 км)
Погода в Ай-Петри (Крым, Россия) (63 км)

Пояснения к столбцам:

Ветер - указаны скорость ветра в м/с - средняя за 10 мин, порывы в срок и между сроками (в фигурных скобках) и направление, откуда дует ветер: С - северный, СВ - северо-восточный, В - восточный, ЮВ - юго-восточный, Ю - южный, ЮЗ - юго-западный, З - западный, СЗ - северо-западный.
Видимость - горизонтальная дальность видимости в метрах или километрах. При видимости от 1 до 10 км при отсутствии осадков обычно наблюдается дымка, при ухудшении видимости до 1 км и менее - туман. В сухую погоду видимость может ухудшаться дымом, пылью или мглою.
Явления - указаны атмосферные явления, наблюдавшиеся в срок или в последний час перед сроком; фигурными скобками обозначены явления, наблюдавшиеся между сроками (за 1-3 часа до срока); квадратными скобками обозначены град или гололедные отложения с указанием их диаметра в мм.
Облачность - указаны через наклонную черту общая и нижняя облачность в баллах и высота нижней границы облаков в метрах; квадратными скобками обозначены формы облаков: Ci - перистые, Cs - перисто-слоистые, Cc - перисто-кучевые, Ac - высококучевые, As - высокослоистые, Sc - слоисто-кучевые, Ns - слоисто-дождевые, Cu - кучевые, Cb - кучево-дождевые. Подробнее классификацию облаков см. в Атласе облаков (PDF).
T - Температура воздуха - температура, измеренная на высоте 2 м над землей.
Td - Температура точки росы - температура, при понижении до которой содержащийся в воздухе водяной пар достигнет насыщения.
f - Относительная влажность воздуха - влажноcть воздуха, измеренная на высоте 2 м над землей.
Te - Эффективная температура - температура, которую ощущает одетый по сезону человек в тени. Характеристика душности погоды. При расчете учитывается влияние влажности воздуха и скорости ветра на теплоощущения человека.
Tes - Эффективная температура на солнце - температура, которую ощущает человек, с поправкой на солнечный нагрев. Характеристика знойности погоды. Зависит от высоты солнца над горизонтом, облачности и скорости ветра. Ночью, в пасмурную погоду, а также при ветре 12 м/с и более поправка равна нулю.
P - Атмосферное давление - приведенное к уровню моря атмосферное давление.
Po - Атмосферное давление - измеренное на уровне метеостанции атмосферное давление.
Tmin - Минимальная температура - минимум температуры воздуха на высоте 2 м над землей.
Tmax - Максимальная температура - максимум температуры воздуха на высоте 2 м над землей.
R - Количество осадков - Количество выпавших осадков за период времени, мм. При наведении курсора мыши на число - период времени, за который выпало указанное количество осадков.
R24 - Количество осадков - Количество выпавших осадков за 24 часа, мм.
S - Снежный покров - Высота снежного покрова, см. При наведении курсора мыши на число - состояние снежного покрова и степень покрытия местности в баллах.